START_TIME,STEP,MOV.,AL01,t_acc.,AL02,t_acc.,E37,t_acc.,H21,t_acc.
1980-11-15 21:00:22.900 ,2,0,0.,24.0,0.,24.0,0.,24.0,0.,24.0
1980-11-15 21:00:46.900 ,3,1,0.,24.0,0.,24.0,1.,24.0,0.,24.0
1980-11-15 21:01:10.900 ,3,0,0.,24.0,0.,24.0,0.,24.0,0.,24.0
1980-11-15 21:01:34.900 ,4,1,0.,24.0,0.,24.0,0.,24.0,0.,24.0
1980-11-15 21:01:58.900 ,4,0,0.,24.0,0.,24.0,2.,24.0,0.,24.0
1980-11-15 21:02:22.900 ,5,1,0.,24.0,0.,24.0,0.,24.0,0.,24.0
1980-11-15 21:02:46.900 ,5,0,0.,24.0,0.,24.0,2.,24.0,0.,24.0
1980-11-15 21:03:10.900 ,6,1,0.,24.0,0.,24.0,1.,24.0,0.,24.0
1980-11-15 21:03:34.900 ,6,0,0.,24.0,0.,24.0,0.,24.0,0.,24.0
1980-11-15 21:03:58.900 ,7,1,3.,24.0,0.,24.0,1.,24.0,0.,24.0
1980-11-15 21:04:22.900 ,7,0,6.,24.0,0.,24.0,2.,24.0,0.,24.0
1980-11-15 21:04:46.900 ,7,1,9.,24.0,0.,24.0,0.,24.0,0.,24.0
1980-11-15 21:05:10.890 ,7,0,9.,24.0,0.,24.0,0.,24.0,0.,24.0
1980-11-15 21:05:34.900 ,6,1,7.,24.0,0.,24.0,0.,24.0,0.,24.0
1980-11-15 21:05:58.900 ,6,0,0.,24.0,0.,24.0,0.,24.0,0.,24.0
1980-11-15 21:06:22.900 ,5,1,0.,24.0,0.,24.0,0.,24.0,0.,24.0
1980-11-15 21:06:46.900 ,5,0,1.,24.0,0.,24.0,0.,24.0,0.,24.0
1980-11-15 21:07:10.890 ,4,1,0.,24.0,0.,24.0,0.,24.0,0.,24.0
1980-11-15 21:07:34.900 ,4,0,0.,24.0,0.,24.0,0.,24.0,0.,24.0
1980-11-15 21:07:58.900 ,3,1,0.,24.0,0.,24.0,2.,24.0,0.,24.0
1980-11-15 21:08:22.900 ,3,0,0.,24.0,0.,24.0,0.,24.0,0.,24.0
1980-11-15 21:08:46.890 ,2,1,0.,24.0,0.,24.0,0.,24.0,0.,24.0
1980-11-15 21:09:10.890 ,2,0,0.,24.0,0.,24.0,1.,24.0,0.,24.0
1980-11-15 21:09:34.890 ,1,1,0.,24.0,0.,24.0,1.,24.0,0.,24.0
1980-11-15 21:09:58.890 ,1,0,0.,24.0,0.,24.0,0.,24.0,0.,24.0
1980-11-15 21:10:22.890 ,0,1,0.,24.0,0.,24.0,0.,24.0,0.,24.0
1980-11-15 21:10:46.890 ,0,0,0.,24.0,0.,24.0,0.,24.0,0.,24.0
1980-11-15 21:11:10.890 ,0,1,0.,24.0,0.,24.0,0.,24.0,0.,24.0
1980-11-15 21:11:34.890 ,0,0,0.,24.0,0.,24.0,0.,24.0,0.,24.0
1980-11-15 21:11:58.890 ,1,1,0.,24.0,0.,24.0,0.,24.0,0.,24.0
1980-11-15 21:12:22.890 ,1,0,0.,24.0,0.,24.0,0.,24.0,0.,24.0
1980-11-15 21:12:46.890 ,2,1,0.,24.0,0.,24.0,0.,24.0,0.,24.0
1980-11-15 21:13:10.890 ,2,0,0.,24.0,0.,24.0,1.,24.0,0.,24.0
1980-11-15 21:13:34.890 ,3,1,0.,24.0,0.,24.0,0.,24.0,0.,24.0
1980-11-15 21:13:58.890 ,3,0,0.,24.0,0.,24.0,0.,24.0,0.,24.0
1980-11-15 21:14:22.890 ,4,1,0.,24.0,0.,24.0,0.,24.0,0.,24.0
1980-11-15 21:14:46.890 ,4,0,0.,24.0,0.,24.0,0.,24.0,0.,24.0
1980-11-15 21:15:10.890 ,5,1,0.,24.0,0.,24.0,0.,24.0,0.,24.0
1980-11-15 21:15:34.890 ,5,0,0.,24.0,0.,24.0,0.,24.0,0.,24.0
1980-11-15 21:15:58.890 ,6,1,0.,24.0,0.,24.0,0.,24.0,0.,24.0
1980-11-15 21:16:22.890 ,6,0,0.,24.0,0.,24.0,0.,24.0,0.,24.0
1980-11-15 21:16:46.890 ,7,1,2.,24.0,0.,24.0,1.,24.0,0.,24.0
1980-11-15 21:17:10.900 ,7,0,11.,24.0,0.,24.0,0.,24.0,0.,24.0
1980-11-15 21:17:34.900 ,7,1,9.,24.0,0.,24.0,0.,24.0,0.,24.0
1980-11-15 21:17:58.900 ,7,0,13.,24.0,0.,24.0,0.,24.0,0.,24.0
1980-11-15 21:18:22.900 ,6,1,5.,24.0,0.,24.0,0.,24.0,0.,24.0
1980-11-15 21:18:46.900 ,6,0,0.,24.0,0.,24.0,0.,24.0,0.,24.0
1980-11-15 21:19:10.900 ,5,1,0.,24.0,0.,24.0,0.,24.0,0.,24.0
1980-11-15 21:19:34.900 ,5,0,0.,24.0,0.,24.0,0.,24.0,0.,24.0
1980-11-15 21:19:58.900 ,4,1,0.,24.0,0.,24.0,1.,24.0,0.,24.0
1980-11-15 21:20:22.900 ,4,0,0.,24.0,0.,24.0,0.,24.0,0.,24.0
1980-11-15 21:20:46.900 ,3,1,0.,24.0,0.,24.0,0.,24.0,0.,24.0
1980-11-15 21:21:10.900 ,3,0,0.,24.0,0.,24.0,0.,24.0,0.,24.0
1980-11-15 21:21:34.900 ,2,1,0.,24.0,0.,24.0,0.,24.0,0.,24.0
1980-11-15 21:21:58.900 ,2,0,0.,24.0,0.,24.0,2.,24.0,0.,24.0
1980-11-15 21:22:22.900 ,1,1,0.,24.0,0.,24.0,0.,24.0,0.,24.0
1980-11-15 21:22:46.900 ,1,0,0.,24.0,0.,24.0,0.,24.0,0.,24.0
1980-11-15 21:23:10.900 ,0,1,1.,24.0,0.,24.0,1.,24.0,0.,24.0
1980-11-15 21:23:34.900 ,0,0,0.,24.0,0.,24.0,1.,24.0,0.,24.0
1980-11-15 21:23:58.900 ,0,1,0.,24.0,0.,24.0,0.,24.0,0.,24.0
1980-11-15 21:24:22.900 ,0,0,0.,24.0,0.,24.0,0.,24.0,0.,24.0
1980-11-15 21:24:46.900 ,1,1,0.,24.0,0.,24.0,0.,24.0,0.,24.0
1980-11-15 21:25:10.900 ,1,0,0.,24.0,0.,24.0,3.,24.0,0.,24.0
1980-11-15 21:25:34.900 ,2,1,0.,24.0,0.,24.0,1.,24.0,0.,24.0
1980-11-15 21:25:58.900 ,2,0,0.,24.0,0.,24.0,0.,24.0,0.,24.0
1980-11-15 21:26:22.900 ,3,1,0.,24.0,0.,24.0,0.,24.0,0.,24.0
1980-11-15 21:26:46.900 ,3,0,0.,24.0,0.,24.0,0.,24.0,0.,24.0
1980-11-15 21:27:10.900 ,4,1,0.,24.0,0.,24.0,0.,24.0,0.,24.0
1980-11-15 21:27:34.900 ,4,0,0.,24.0,0.,24.0,0.,24.0,0.,24.0
1980-11-15 21:27:58.900 ,5,1,1.,24.0,0.,24.0,1.,24.0,0.,24.0
1980-11-15 21:28:22.900 ,5,0,0.,24.0,0.,24.0,1.,24.0,0.,24.0
1980-11-15 21:28:46.900 ,6,1,0.,24.0,1.,24.0,0.,24.0,0.,24.0
1980-11-15 21:29:10.900 ,6,0,0.,24.0,0.,24.0,0.,24.0,0.,24.0
1980-11-15 21:29:34.900 ,7,1,5.,24.0,0.,24.0,0.,24.0,0.,24.0
1980-11-15 21:29:58.900 ,7,0,10.,24.0,0.,24.0,1.,24.0,0.,24.0
1980-11-15 21:30:22.900 ,7,1,6.,24.0,0.,24.0,0.,24.0,0.,24.0
1980-11-15 21:30:46.900 ,7,0,11.,24.0,0.,24.0,0.,24.0,0.,24.0
1980-11-15 21:31:10.900 ,6,1,10.,24.0,0.,24.0,0.,24.0,0.,24.0
1980-11-15 21:31:34.900 ,6,0,0.,24.0,0.,24.0,1.,24.0,0.,24.0
1980-11-15 21:31:58.900 ,5,1,0.,24.0,0.,24.0,0.,24.0,0.,24.0
1980-11-15 21:32:22.900 ,5,0,0.,24.0,0.,24.0,2.,24.0,0.,24.0
1980-11-15 21:32:46.900 ,4,1,0.,24.0,0.,24.0,0.,24.0,0.,24.0
1980-11-15 21:33:10.900 ,4,0,0.,24.0,0.,24.0,1.,24.0,0.,24.0
1980-11-15 21:33:34.900 ,3,1,0.,24.0,0.,24.0,0.,24.0,0.,24.0
1980-11-15 21:33:58.900 ,3,0,0.,24.0,0.,24.0,0.,24.0,0.,24.0
1980-11-15 21:34:22.900 ,2,1,0.,24.0,0.,24.0,0.,24.0,0.,24.0
1980-11-15 21:34:46.900 ,2,0,0.,24.0,0.,24.0,0.,24.0,0.,24.0
1980-11-15 21:35:10.900 ,1,1,0.,24.0,0.,24.0,0.,24.0,0.,24.0
1980-11-15 21:35:34.900 ,1,0,0.,24.0,0.,24.0,0.,24.0,0.,24.0
1980-11-15 21:35:58.900 ,0,1,0.,24.0,0.,24.0,0.,24.0,0.,24.0
1980-11-15 21:36:22.900 ,0,0,0.,24.0,0.,24.0,0.,24.0,0.,24.0
1980-11-15 21:36:46.900 ,0,1,0.,24.0,0.,24.0,0.,24.0,0.,24.0
1980-11-15 21:37:10.900 ,0,0,0.,24.0,0.,24.0,1.,24.0,0.,24.0
1980-11-15 21:37:34.900 ,1,1,0.,24.0,0.,24.0,0.,24.0,0.,24.0
1980-11-15 21:37:58.900 ,1,0,0.,24.0,0.,24.0,0.,24.0,0.,24.0
1980-11-15 21:38:22.900 ,2,1,0.,24.0,0.,24.0,0.,24.0,0.,24.0
1980-11-15 21:38:46.900 ,2,0,0.,24.0,0.,24.0,1.,24.0,0.,24.0
1980-11-15 21:39:10.900 ,3,1,0.,24.0,0.,24.0,0.,24.0,0.,24.0
1980-11-15 21:39:34.900 ,3,0,1.,24.0,0.,24.0,0.,24.0,0.,24.0
1980-11-15 21:39:58.900 ,4,1,0.,24.0,0.,24.0,0.,24.0,0.,24.0
1980-11-15 21:40:22.900 ,4,0,1.,24.0,0.,24.0,0.,24.0,0.,24.0
1980-11-15 21:40:46.900 ,5,1,0.,24.0,0.,24.0,0.,24.0,0.,24.0
1980-11-15 21:41:10.900 ,5,0,0.,24.0,0.,24.0,0.,24.0,0.,24.0
1980-11-15 21:41:34.900 ,6,1,0.,24.0,0.,24.0,2.,24.0,0.,24.0
1980-11-15 21:41:58.900 ,6,0,0.,24.0,0.,24.0,2.,24.0,0.,24.0
1980-11-15 21:42:22.900 ,7,1,3.,24.0,0.,24.0,0.,24.0,0.,24.0
1980-11-15 21:42:46.900 ,7,0,14.,24.0,0.,24.0,0.,24.0,0.,24.0
1980-11-15 21:43:10.900 ,7,1,10.,24.0,0.,24.0,0.,24.0,0.,24.0
1980-11-15 21:43:34.900 ,7,0,6.,24.0,0.,24.0,1.,24.0,0.,24.0
1980-11-15 21:43:58.900 ,6,1,9.,24.0,0.,24.0,0.,24.0,0.,24.0
1980-11-15 21:44:22.900 ,6,0,0.,24.0,0.,24.0,0.,24.0,0.,24.0
1980-11-15 21:44:46.900 ,5,1,0.,24.0,0.,24.0,0.,24.0,0.,24.0
1980-11-15 21:45:10.900 ,5,0,0.,24.0,0.,24.0,0.,24.0,0.,24.0
1980-11-15 21:45:34.900 ,4,1,0.,24.0,0.,24.0,0.,24.0,0.,24.0
1980-11-15 21:45:58.900 ,4,0,0.,24.0,0.,24.0,0.,24.0,0.,24.0
1980-11-15 21:46:22.900 ,3,1,0.,24.0,0.,24.0,0.,24.0,0.,24.0
1980-11-15 21:46:46.900 ,3,0,0.,24.0,0.,24.0,0.,24.0,0.,24.0
1980-11-15 21:47:10.900 ,2,1,0.,24.0,0.,24.0,0.,24.0,0.,24.0
1980-11-15 21:47:34.900 ,2,0,0.,24.0,0.,24.0,0.,24.0,0.,24.0
1980-11-15 21:47:58.900 ,1,1,0.,24.0,0.,24.0,0.,24.0,0.,24.0
1980-11-15 21:48:22.900 ,1,0,0.,24.0,0.,24.0,0.,24.0,0.,24.0
1980-11-15 21:48:46.900 ,0,1,0.,24.0,0.,24.0,2.,24.0,0.,24.0
1980-11-15 21:49:10.900 ,0,0,0.,24.0,0.,24.0,0.,24.0,0.,24.0
1980-11-15 21:49:34.900 ,0,1,0.,24.0,0.,24.0,0.,24.0,0.,24.0
1980-11-15 21:49:58.900 ,0,0,0.,24.0,0.,24.0,0.,24.0,0.,24.0
1980-11-15 21:50:22.900 ,1,1,0.,24.0,0.,24.0,0.,24.0,0.,24.0
1980-11-15 21:50:46.900 ,1,0,0.,24.0,0.,24.0,0.,24.0,0.,24.0
1980-11-15 21:51:10.900 ,2,1,0.,24.0,0.,24.0,0.,24.0,0.,24.0
1980-11-15 21:51:34.900 ,2,0,0.,24.0,0.,24.0,1.,24.0,0.,24.0
1980-11-15 21:51:58.900 ,3,1,0.,24.0,0.,24.0,0.,24.0,0.,24.0
1980-11-15 21:52:22.900 ,3,0,0.,24.0,0.,24.0,1.,24.0,0.,24.0
1980-11-15 21:52:46.900 ,4,1,0.,24.0,0.,24.0,0.,24.0,0.,24.0
1980-11-15 21:53:10.900 ,4,0,0.,24.0,0.,24.0,1.,24.0,0.,24.0
1980-11-15 21:53:34.900 ,5,1,0.,24.0,0.,24.0,1.,24.0,0.,24.0
1980-11-15 21:53:58.900 ,5,0,0.,24.0,0.,24.0,0.,24.0,0.,24.0
1980-11-15 21:54:22.900 ,6,1,0.,24.0,0.,24.0,1.,24.0,0.,24.0
1980-11-15 21:54:46.900 ,6,0,0.,24.0,0.,24.0,0.,24.0,0.,24.0
1980-11-15 21:55:10.900 ,7,1,3.,24.0,0.,24.0,1.,24.0,0.,24.0
1980-11-15 21:55:34.900 ,7,0,8.,24.0,0.,24.0,0.,24.0,0.,24.0
1980-11-15 21:56:46.900 ,0,0,10.,24.0,0.,24.0,0.,24.0,0.,24.0
1980-11-15 21:57:10.900 ,0,0,0.,24.0,0.,24.0,0.,24.0,0.,24.0
1980-11-15 21:57:34.900 ,5,1,0.,24.0,0.,24.0,1.,24.0,0.,24.0
1980-11-15 21:57:58.900 ,5,0,0.,24.0,0.,24.0,0.,24.0,0.,24.0
1980-11-15 21:58:22.900 ,4,1,0.,24.0,0.,24.0,0.,24.0,0.,24.0
1980-11-15 21:58:46.900 ,4,0,0.,24.0,0.,24.0,0.,24.0,0.,24.0
1980-11-15 21:59:10.900 ,3,1,0.,24.0,0.,24.0,0.,24.0,0.,24.0
1980-11-15 21:59:34.900 ,3,0,0.,24.0,0.,24.0,0.,24.0,0.,24.0
1980-11-15 21:59:58.900 ,2,1,0.,24.0,0.,24.0,0.,24.0,0.,24.0
1980-11-15 22:00:22.900 ,2,0,0.,24.0,0.,24.0,2.,24.0,0.,24.0
1980-11-15 22:00:46.900 ,1,1,0.,24.0,0.,24.0,0.,24.0,0.,24.0
1980-11-15 22:01:10.900 ,1,0,0.,24.0,0.,24.0,1.,24.0,0.,24.0
1980-11-15 22:01:34.900 ,0,1,0.,24.0,0.,24.0,0.,24.0,0.,24.0
1980-11-15 22:01:58.900 ,0,0,0.,24.0,0.,24.0,0.,24.0,0.,24.0
1980-11-15 22:02:22.900 ,0,1,0.,24.0,0.,24.0,0.,24.0,0.,24.0
1980-11-15 22:02:46.900 ,0,0,0.,24.0,0.,24.0,2.,24.0,0.,24.0
1980-11-15 22:03:10.900 ,1,1,0.,24.0,0.,24.0,0.,24.0,0.,24.0
1980-11-15 22:03:34.900 ,1,0,0.,24.0,0.,24.0,0.,24.0,0.,24.0
1980-11-15 22:03:58.900 ,2,1,0.,24.0,0.,24.0,1.,24.0,0.,24.0
1980-11-15 22:04:22.900 ,2,0,0.,24.0,0.,24.0,1.,24.0,0.,24.0
1980-11-15 22:04:46.900 ,3,1,0.,24.0,0.,24.0,0.,24.0,0.,24.0
1980-11-15 22:05:10.900 ,3,0,1.,24.0,0.,24.0,0.,24.0,0.,24.0
1980-11-15 22:05:34.900 ,4,1,0.,24.0,0.,24.0,1.,24.0,0.,24.0
1980-11-15 22:05:58.900 ,4,0,0.,24.0,0.,24.0,0.,24.0,0.,24.0
1980-11-15 22:06:22.900 ,5,1,0.,24.0,0.,24.0,0.,24.0,0.,24.0
1980-11-15 22:06:46.900 ,5,0,0.,24.0,0.,24.0,0.,24.0,0.,24.0
1980-11-15 22:07:10.900 ,6,1,0.,24.0,0.,24.0,1.,24.0,0.,24.0
1980-11-15 22:07:34.900 ,6,0,0.,24.0,0.,24.0,1.,24.0,0.,24.0
1980-11-15 22:07:58.900 ,7,1,3.,24.0,0.,24.0,0.,24.0,0.,24.0
1980-11-15 22:08:22.900 ,7,0,9.,24.0,0.,24.0,0.,24.0,0.,24.0
1980-11-15 22:08:46.900 ,7,1,9.,24.0,0.,24.0,0.,24.0,0.,24.0
1980-11-15 22:09:10.900 ,7,0,12.,24.0,0.,24.0,1.,24.0,0.,24.0
1980-11-15 22:09:34.900 ,6,1,6.,24.0,0.,24.0,0.,24.0,0.,24.0
1980-11-15 22:09:58.900 ,6,0,0.,24.0,0.,24.0,0.,24.0,0.,24.0
1980-11-15 22:10:22.900 ,5,1,0.,24.0,0.,24.0,0.,24.0,0.,24.0
1980-11-15 22:10:46.900 ,5,0,0.,24.0,0.,24.0,0.,24.0,0.,24.0
1980-11-15 22:11:10.900 ,4,1,0.,24.0,0.,24.0,0.,24.0,0.,24.0
1980-11-15 22:11:34.900 ,4,0,0.,24.0,0.,24.0,0.,24.0,0.,24.0
1980-11-15 22:11:58.900 ,3,1,0.,24.0,0.,24.0,0.,24.0,0.,24.0
1980-11-15 22:12:22.900 ,3,0,0.,24.0,0.,24.0,0.,24.0,0.,24.0
1980-11-15 22:12:46.900 ,2,1,0.,24.0,0.,24.0,0.,24.0,0.,24.0
1980-11-15 22:13:10.900 ,2,0,1.,24.0,0.,24.0,1.,24.0,0.,24.0
1980-11-15 22:13:34.900 ,1,1,0.,24.0,0.,24.0,0.,24.0,0.,24.0
1980-11-15 22:13:58.900 ,1,0,0.,24.0,0.,24.0,0.,24.0,0.,24.0
1980-11-15 22:14:22.900 ,0,1,0.,24.0,0.,24.0,0.,24.0,0.,24.0
1980-11-15 22:14:46.900 ,0,0,0.,24.0,0.,24.0,0.,24.0,0.,24.0
1980-11-15 22:15:10.900 ,0,1,0.,24.0,0.,24.0,0.,24.0,0.,24.0
1980-11-15 22:15:34.900 ,0,0,0.,24.0,0.,24.0,0.,24.0,0.,24.0
1980-11-15 22:15:58.900 ,1,1,0.,24.0,0.,24.0,1.,24.0,0.,24.0
1980-11-15 22:16:22.900 ,1,0,0.,24.0,0.,24.0,0.,24.0,0.,24.0
1980-11-15 22:16:46.900 ,2,1,0.,24.0,0.,24.0,0.,24.0,0.,24.0
1980-11-15 22:17:10.900 ,2,0,0.,24.0,0.,24.0,0.,24.0,0.,24.0
1980-11-15 22:17:34.900 ,3,1,0.,24.0,0.,24.0,0.,24.0,0.,24.0
1980-11-15 22:17:58.900 ,3,0,0.,24.0,0.,24.0,0.,24.0,0.,24.0
1980-11-15 22:18:22.900 ,4,1,0.,24.0,0.,24.0,0.,24.0,0.,24.0
1980-11-15 22:18:46.900 ,4,0,0.,24.0,0.,24.0,0.,24.0,0.,24.0
1980-11-15 22:19:10.900 ,5,1,0.,24.0,0.,24.0,0.,24.0,0.,24.0
1980-11-15 22:19:34.900 ,5,0,0.,24.0,0.,24.0,0.,24.0,0.,24.0
1980-11-15 22:19:58.900 ,6,1,0.,24.0,0.,24.0,2.,24.0,0.,24.0
1980-11-15 22:20:22.900 ,6,0,0.,24.0,0.,24.0,1.,24.0,0.,24.0
1980-11-15 22:20:46.900 ,7,1,3.,24.0,0.,24.0,0.,24.0,0.,24.0
1980-11-15 22:21:10.900 ,7,0,9.,24.0,0.,24.0,0.,24.0,0.,24.0
1980-11-15 22:21:34.900 ,7,1,8.,24.0,0.,24.0,0.,24.0,0.,24.0
1980-11-15 22:21:58.900 ,7,0,9.,24.0,0.,24.0,0.,24.0,0.,24.0
1980-11-15 22:22:22.900 ,6,1,10.,24.0,0.,24.0,0.,24.0,0.,24.0
1980-11-15 22:22:46.900 ,6,0,0.,24.0,0.,24.0,1.,24.0,0.,24.0
1980-11-15 22:23:10.900 ,5,1,0.,24.0,0.,24.0,1.,24.0,0.,24.0
1980-11-15 22:23:34.900 ,5,0,0.,24.0,0.,24.0,1.,24.0,0.,24.0
1980-11-15 22:23:58.900 ,4,1,0.,24.0,0.,24.0,0.,24.0,0.,24.0
1980-11-15 22:24:22.900 ,4,0,0.,24.0,0.,24.0,0.,24.0,0.,24.0
1980-11-15 22:24:46.900 ,3,1,0.,24.0,0.,24.0,1.,24.0,0.,24.0
1980-11-15 22:25:10.900 ,3,0,0.,24.0,0.,24.0,1.,24.0,0.,24.0
1980-11-15 22:25:34.900 ,2,1,1.,24.0,0.,24.0,0.,24.0,0.,24.0
1980-11-15 22:25:58.900 ,2,0,0.,24.0,0.,24.0,0.,24.0,0.,24.0
1980-11-15 22:26:22.900 ,1,1,0.,24.0,0.,24.0,0.,24.0,0.,24.0
1980-11-15 22:26:46.900 ,0,0,0.,24.0,0.,24.0,1.,24.0,0.,24.0
1980-11-15 22:28:59.500 ,0,0,,0,,0,,0,,0
1980-11-15 22:29:10.900 ,0,0,0.,24.0,0.,24.0,0.,24.0,0.,24.0
1980-11-15 22:29:34.900 ,2,1,0.,24.0,0.,24.0,1.,24.0,0.,24.0
1980-11-15 22:29:58.900 ,2,0,0.,24.0,0.,24.0,0.,24.0,0.,24.0
1980-11-15 22:30:22.900 ,3,1,0.,24.0,0.,24.0,0.,24.0,0.,24.0
1980-11-15 22:30:46.900 ,3,0,0.,24.0,0.,24.0,2.,24.0,0.,24.0
1980-11-15 22:31:10.900 ,4,1,0.,24.0,0.,24.0,0.,24.0,0.,24.0
1980-11-15 22:31:34.900 ,4,0,0.,24.0,0.,24.0,0.,24.0,0.,24.0
1980-11-15 22:31:58.900 ,5,1,0.,24.0,0.,24.0,0.,24.0,0.,24.0
1980-11-15 22:32:22.900 ,5,0,0.,24.0,0.,24.0,0.,24.0,0.,24.0
1980-11-15 22:32:46.900 ,6,1,0.,24.0,1.,24.0,0.,24.0,0.,24.0
1980-11-15 22:33:10.900 ,6,0,0.,24.0,0.,24.0,0.,24.0,0.,24.0
1980-11-15 22:33:34.900 ,7,1,2.,24.0,0.,24.0,0.,24.0,0.,24.0
1980-11-15 22:33:58.900 ,7,0,12.,24.0,0.,24.0,0.,24.0,0.,24.0
1980-11-15 22:34:22.900 ,7,1,11.,24.0,0.,24.0,0.,24.0,0.,24.0
1980-11-15 22:34:46.900 ,7,0,14.,24.0,0.,24.0,0.,24.0,0.,24.0
1980-11-15 22:35:10.900 ,6,1,4.,24.0,0.,24.0,0.,24.0,0.,24.0
1980-11-15 22:35:34.900 ,6,0,0.,24.0,0.,24.0,0.,24.0,0.,24.0
1980-11-15 22:35:58.900 ,5,1,0.,24.0,0.,24.0,0.,24.0,0.,24.0
1980-11-15 22:36:22.900 ,5,0,0.,24.0,0.,24.0,0.,24.0,0.,24.0
1980-11-15 22:36:46.900 ,4,1,0.,24.0,0.,24.0,0.,24.0,0.,24.0
1980-11-15 22:37:10.900 ,4,0,0.,24.0,0.,24.0,0.,24.0,0.,24.0
1980-11-15 22:37:34.900 ,3,1,0.,24.0,0.,24.0,0.,24.0,0.,24.0
1980-11-15 22:37:58.900 ,3,0,0.,24.0,0.,24.0,2.,24.0,0.,24.0
1980-11-15 22:38:22.900 ,2,1,0.,24.0,0.,24.0,0.,24.0,0.,24.0
1980-11-15 22:38:46.900 ,2,0,0.,24.0,0.,24.0,1.,24.0,0.,24.0
1980-11-15 22:39:10.900 ,1,1,0.,24.0,0.,24.0,1.,24.0,0.,24.0
1980-11-15 22:39:34.900 ,1,0,0.,24.0,0.,24.0,1.,24.0,0.,24.0
1980-11-15 22:39:58.900 ,0,1,0.,24.0,0.,24.0,0.,24.0,0.,24.0
1980-11-15 22:40:22.900 ,0,0,0.,24.0,0.,24.0,0.,24.0,0.,24.0
1980-11-15 22:40:46.900 ,0,1,0.,24.0,0.,24.0,1.,24.0,0.,24.0
1980-11-15 22:41:10.900 ,0,0,0.,24.0,0.,24.0,0.,24.0,0.,24.0
1980-11-15 22:41:34.900 ,1,1,0.,24.0,0.,24.0,1.,24.0,0.,24.0
1980-11-15 22:41:58.900 ,1,0,0.,24.0,0.,24.0,1.,24.0,0.,24.0
1980-11-15 22:42:22.900 ,2,1,0.,24.0,0.,24.0,1.,24.0,0.,24.0
1980-11-15 22:42:46.900 ,2,0,0.,24.0,0.,24.0,2.,24.0,0.,24.0
1980-11-15 22:43:10.900 ,3,1,0.,24.0,0.,24.0,1.,24.0,0.,24.0
1980-11-15 22:43:34.900 ,3,0,0.,24.0,0.,24.0,0.,24.0,0.,24.0
1980-11-15 22:43:58.900 ,4,1,0.,24.0,0.,24.0,0.,24.0,0.,24.0
1980-11-15 22:44:22.900 ,4,0,0.,24.0,0.,24.0,0.,24.0,0.,24.0
1980-11-15 22:44:46.900 ,5,1,0.,24.0,0.,24.0,0.,24.0,0.,24.0
1980-11-15 22:45:10.900 ,5,0,0.,24.0,0.,24.0,1.,24.0,0.,24.0
1980-11-15 22:45:34.900 ,6,1,0.,24.0,0.,24.0,0.,24.0,0.,24.0
1980-11-15 22:45:58.900 ,6,0,0.,24.0,0.,24.0,0.,24.0,0.,24.0
1980-11-15 22:46:22.900 ,7,1,3.,24.0,0.,24.0,0.,24.0,0.,24.0
1980-11-15 22:46:46.900 ,7,0,11.,24.0,0.,24.0,0.,24.0,0.,24.0
1980-11-15 22:47:10.900 ,7,1,8.,24.0,0.,24.0,0.,24.0,0.,24.0
1980-11-15 22:47:34.900 ,7,0,9.,24.0,0.,24.0,1.,24.0,0.,24.0
1980-11-15 22:47:58.900 ,6,1,10.,24.0,0.,24.0,0.,24.0,0.,24.0
1980-11-15 22:48:22.900 ,6,0,0.,24.0,0.,24.0,1.,24.0,0.,24.0
1980-11-15 22:48:46.900 ,5,1,0.,24.0,0.,24.0,0.,24.0,0.,24.0
1980-11-15 22:49:10.900 ,5,0,0.,24.0,0.,24.0,0.,24.0,0.,24.0
1980-11-15 22:49:34.900 ,4,1,0.,24.0,0.,24.0,0.,24.0,0.,24.0
1980-11-15 22:49:58.900 ,4,0,0.,24.0,0.,24.0,0.,24.0,0.,24.0
1980-11-15 22:50:22.900 ,3,1,0.,24.0,0.,24.0,0.,24.0,0.,24.0
1980-11-15 22:50:46.900 ,3,0,0.,24.0,0.,24.0,0.,24.0,0.,24.0
1980-11-15 22:51:10.900 ,2,1,0.,24.0,0.,24.0,1.,24.0,0.,24.0
1980-11-15 22:51:34.900 ,2,0,0.,24.0,0.,24.0,1.,24.0,0.,24.0
1980-11-15 22:51:58.900 ,1,1,0.,24.0,0.,24.0,1.,24.0,0.,24.0
1980-11-15 22:52:22.900 ,1,0,0.,24.0,0.,24.0,1.,24.0,0.,24.0
1980-11-15 22:52:46.900 ,0,1,0.,24.0,0.,24.0,0.,24.0,0.,24.0
1980-11-15 22:53:10.900 ,0,0,0.,24.0,0.,24.0,0.,24.0,0.,24.0
1980-11-15 22:53:34.900 ,0,1,0.,24.0,0.,24.0,0.,24.0,0.,24.0
1980-11-15 22:53:58.900 ,0,0,0.,24.0,0.,24.0,1.,24.0,0.,24.0
1980-11-15 22:54:22.900 ,1,1,0.,24.0,0.,24.0,1.,24.0,0.,24.0
1980-11-15 22:54:46.900 ,1,0,0.,24.0,0.,24.0,0.,24.0,0.,24.0
1980-11-15 22:55:10.900 ,2,1,0.,24.0,0.,24.0,0.,24.0,0.,24.0
1980-11-15 22:55:34.900 ,2,0,0.,24.0,0.,24.0,0.,24.0,0.,24.0
1980-11-15 22:55:58.900 ,3,1,0.,24.0,0.,24.0,0.,24.0,0.,24.0
1980-11-15 22:56:22.900 ,3,0,0.,24.0,0.,24.0,0.,24.0,0.,24.0
1980-11-15 22:56:46.900 ,4,1,0.,24.0,0.,24.0,0.,24.0,0.,24.0
1980-11-15 22:57:10.900 ,4,0,0.,24.0,0.,24.0,2.,24.0,0.,24.0
1980-11-15 22:57:34.900 ,5,1,0.,24.0,0.,24.0,0.,24.0,0.,24.0
1980-11-15 22:57:58.900 ,5,0,0.,24.0,1.,24.0,0.,24.0,0.,24.0
1980-11-15 22:58:22.900 ,6,1,0.,24.0,0.,24.0,0.,24.0,0.,24.0
1980-11-15 22:58:46.900 ,6,0,0.,24.0,0.,24.0,0.,24.0,0.,24.0
1980-11-15 22:59:10.900 ,7,1,6.,24.0,0.,24.0,0.,24.0,0.,24.0
1980-11-15 22:59:34.900 ,7,0,7.,24.0,0.,24.0,0.,24.0,0.,24.0
1980-11-15 22:59:58.900 ,0,0,12.,24.0,0.,24.0,0.,24.0,0.,24.0
1980-11-15 23:00:22.900 ,0,0,8.,24.0,0.,24.0,0.,24.0,0.,24.0
1980-11-15 23:00:46.900 ,6,1,8.,24.0,0.,24.0,0.,24.0,0.,24.0
1980-11-15 23:01:10.900 ,6,0,0.,24.0,0.,24.0,2.,24.0,0.,24.0
1980-11-15 23:01:34.900 ,5,1,0.,24.0,0.,24.0,0.,24.0,0.,24.0
1980-11-15 23:01:58.900 ,5,0,0.,24.0,0.,24.0,1.,24.0,0.,24.0
1980-11-15 23:02:22.900 ,4,1,0.,24.0,0.,24.0,0.,24.0,0.,24.0
1980-11-15 23:02:46.900 ,4,0,0.,24.0,0.,24.0,0.,24.0,0.,24.0
1980-11-15 23:03:10.900 ,3,1,0.,24.0,0.,24.0,0.,24.0,0.,24.0
1980-11-15 23:03:34.900 ,3,0,0.,24.0,0.,24.0,0.,24.0,0.,24.0
1980-11-15 23:03:58.900 ,2,1,0.,24.0,0.,24.0,0.,24.0,0.,24.0
1980-11-15 23:04:22.900 ,2,0,0.,24.0,0.,24.0,1.,24.0,0.,24.0
1980-11-15 23:04:46.900 ,1,1,0.,24.0,0.,24.0,0.,24.0,0.,24.0
1980-11-15 23:05:10.900 ,1,0,0.,24.0,0.,24.0,1.,24.0,0.,24.0
1980-11-15 23:05:34.900 ,0,1,0.,24.0,0.,24.0,2.,24.0,0.,24.0
1980-11-15 23:05:58.900 ,0,0,0.,24.0,0.,24.0,0.,24.0,0.,24.0
1980-11-15 23:06:22.900 ,0,1,0.,24.0,0.,24.0,0.,24.0,0.,24.0
1980-11-15 23:06:46.900 ,0,0,0.,24.0,0.,24.0,2.,24.0,0.,24.0
1980-11-15 23:07:10.900 ,1,1,0.,24.0,0.,24.0,1.,24.0,0.,24.0
1980-11-15 23:07:34.900 ,1,0,0.,24.0,0.,24.0,1.,24.0,0.,24.0
1980-11-15 23:07:58.900 ,2,1,0.,24.0,0.,24.0,0.,24.0,0.,24.0
1980-11-15 23:08:22.900 ,2,0,0.,24.0,0.,24.0,0.,24.0,0.,24.0
1980-11-15 23:08:46.900 ,3,1,0.,24.0,0.,24.0,0.,24.0,0.,24.0
1980-11-15 23:09:10.900 ,3,0,0.,24.0,0.,24.0,1.,24.0,0.,24.0
1980-11-15 23:09:34.900 ,4,1,0.,24.0,0.,24.0,0.,24.0,0.,24.0
1980-11-15 23:09:58.900 ,4,0,0.,24.0,0.,24.0,0.,24.0,0.,24.0
1980-11-15 23:10:22.900 ,5,1,0.,24.0,0.,24.0,1.,24.0,0.,24.0
1980-11-15 23:10:46.900 ,5,0,0.,24.0,0.,24.0,0.,24.0,0.,24.0
1980-11-15 23:11:10.900 ,6,1,0.,24.0,0.,24.0,1.,24.0,0.,24.0
1980-11-15 23:11:34.900 ,6,0,0.,24.0,0.,24.0,0.,24.0,0.,24.0
1980-11-15 23:11:58.900 ,7,1,5.,24.0,0.,24.0,0.,24.0,0.,24.0
1980-11-15 23:12:22.900 ,7,0,6.,24.0,0.,24.0,1.,24.0,0.,24.0
1980-11-15 23:12:46.900 ,7,1,7.,24.0,0.,24.0,2.,24.0,0.,24.0
1980-11-15 23:13:10.900 ,7,0,8.,24.0,0.,24.0,0.,24.0,0.,24.0
1980-11-15 23:13:34.900 ,6,1,8.,24.0,0.,24.0,0.,24.0,0.,24.0
1980-11-15 23:13:58.900 ,6,0,0.,24.0,0.,24.0,0.,24.0,0.,24.0
1980-11-15 23:14:22.900 ,5,1,0.,24.0,0.,24.0,0.,24.0,0.,24.0
1980-11-15 23:14:46.900 ,5,0,0.,24.0,0.,24.0,0.,24.0,0.,24.0
1980-11-15 23:15:10.900 ,4,1,0.,24.0,0.,24.0,1.,24.0,0.,24.0
1980-11-15 23:15:34.900 ,4,0,0.,24.0,0.,24.0,1.,24.0,0.,24.0
1980-11-15 23:15:58.900 ,3,1,0.,24.0,0.,24.0,0.,24.0,0.,24.0
1980-11-15 23:16:22.900 ,3,0,0.,24.0,0.,24.0,0.,24.0,0.,24.0
1980-11-15 23:16:46.900 ,2,1,0.,24.0,0.,24.0,0.,24.0,0.,24.0
1980-11-15 23:17:10.900 ,2,0,0.,24.0,0.,24.0,0.,24.0,0.,24.0
1980-11-15 23:17:34.900 ,1,1,0.,24.0,0.,24.0,2.,24.0,0.,24.0
1980-11-15 23:17:58.900 ,1,0,0.,24.0,0.,24.0,0.,24.0,0.,24.0
1980-11-15 23:18:22.900 ,0,1,0.,24.0,0.,24.0,3.,24.0,0.,24.0
1980-11-15 23:18:46.900 ,0,0,0.,24.0,0.,24.0,1.,24.0,0.,24.0
1980-11-15 23:19:10.900 ,0,1,0.,24.0,0.,24.0,1.,24.0,0.,24.0
1980-11-15 23:19:34.900 ,0,0,0.,24.0,0.,24.0,0.,24.0,0.,24.0
1980-11-15 23:19:58.900 ,1,1,0.,24.0,0.,24.0,2.,24.0,0.,24.0
1980-11-15 23:20:22.900 ,1,0,0.,24.0,0.,24.0,1.,24.0,0.,24.0
1980-11-15 23:20:46.900 ,2,1,0.,24.0,0.,24.0,0.,24.0,0.,24.0
1980-11-15 23:21:10.900 ,2,0,0.,24.0,0.,24.0,0.,24.0,0.,24.0
1980-11-15 23:21:34.900 ,3,1,0.,24.0,0.,24.0,0.,24.0,0.,24.0
1980-11-15 23:21:58.900 ,3,0,0.,24.0,0.,24.0,0.,24.0,0.,24.0
1980-11-15 23:22:22.900 ,4,1,0.,24.0,0.,24.0,1.,24.0,0.,24.0
1980-11-15 23:22:46.900 ,4,0,0.,24.0,0.,24.0,1.,24.0,0.,24.0
1980-11-15 23:23:10.900 ,5,1,0.,24.0,0.,24.0,0.,24.0,0.,24.0
1980-11-15 23:23:34.900 ,5,0,0.,24.0,0.,24.0,1.,24.0,0.,24.0
1980-11-15 23:23:58.900 ,6,1,0.,24.0,0.,24.0,0.,24.0,0.,24.0
1980-11-15 23:24:22.900 ,6,0,0.,24.0,0.,24.0,0.,24.0,0.,24.0
1980-11-15 23:24:46.900 ,7,1,0.,24.0,0.,24.0,0.,24.0,0.,24.0
1980-11-15 23:25:10.900 ,7,0,9.,24.0,0.,24.0,3.,24.0,0.,24.0
1980-11-15 23:25:34.900 ,7,1,13.,24.0,0.,24.0,1.,24.0,0.,24.0
1980-11-15 23:25:58.900 ,7,0,12.,24.0,0.,24.0,0.,24.0,0.,24.0
1980-11-15 23:26:22.900 ,6,1,11.,24.0,0.,24.0,0.,24.0,0.,24.0
1980-11-15 23:26:46.900 ,6,0,0.,24.0,0.,24.0,1.,24.0,0.,24.0
1980-11-15 23:27:10.900 ,5,1,1.,24.0,0.,24.0,0.,24.0,0.,24.0
1980-11-15 23:27:34.900 ,5,0,0.,24.0,1.,24.0,0.,24.0,0.,24.0
1980-11-15 23:27:58.900 ,4,1,0.,24.0,0.,24.0,1.,24.0,0.,24.0
1980-11-15 23:28:22.900 ,4,0,0.,24.0,0.,24.0,0.,24.0,0.,24.0
1980-11-15 23:28:46.900 ,3,1,0.,24.0,0.,24.0,1.,24.0,0.,24.0
1980-11-15 23:29:10.900 ,3,0,0.,24.0,0.,24.0,0.,24.0,0.,24.0
1980-11-15 23:29:34.900 ,2,1,0.,24.0,0.,24.0,0.,24.0,0.,24.0
1980-11-15 23:29:58.900 ,2,0,0.,24.0,0.,24.0,0.,24.0,0.,24.0
1980-11-15 23:30:22.900 ,1,1,0.,24.0,0.,24.0,0.,24.0,0.,24.0
1980-11-15 23:30:46.900 ,1,0,0.,24.0,0.,24.0,2.,24.0,0.,24.0
1980-11-15 23:31:10.900 ,0,1,0.,24.0,0.,24.0,1.,24.0,0.,24.0
1980-11-15 23:31:34.900 ,0,0,1.,24.0,0.,24.0,1.,24.0,0.,24.0
1980-11-15 23:31:58.900 ,0,1,0.,24.0,0.,24.0,0.,24.0,0.,24.0
1980-11-15 23:32:22.900 ,0,0,0.,24.0,0.,24.0,1.,24.0,0.,24.0
1980-11-15 23:32:46.900 ,1,1,0.,24.0,0.,24.0,0.,24.0,0.,24.0
1980-11-15 23:33:10.900 ,1,0,0.,24.0,0.,24.0,0.,24.0,0.,24.0
1980-11-15 23:33:34.900 ,2,1,0.,24.0,0.,24.0,0.,24.0,0.,24.0
1980-11-15 23:33:58.900 ,2,0,0.,24.0,0.,24.0,1.,24.0,0.,24.0
1980-11-15 23:34:22.900 ,3,1,0.,24.0,0.,24.0,1.,24.0,0.,24.0
1980-11-15 23:34:46.900 ,3,0,0.,24.0,0.,24.0,0.,24.0,0.,24.0
1980-11-15 23:35:10.900 ,4,1,0.,24.0,0.,24.0,1.,24.0,0.,24.0
1980-11-15 23:35:34.900 ,4,0,0.,24.0,0.,24.0,1.,24.0,0.,24.0
1980-11-15 23:35:58.900 ,5,1,0.,24.0,0.,24.0,0.,24.0,0.,24.0
1980-11-15 23:36:22.900 ,5,0,0.,24.0,0.,24.0,1.,24.0,0.,24.0
1980-11-15 23:36:46.900 ,6,1,0.,24.0,0.,24.0,1.,24.0,0.,24.0